Regional Weather Roundup
Issued by NWS Kansas City/Pleasant Hill, MO

Home | Current Version | Previous Version | Graphics & Text | Print | Product List | Glossary Off
Versions: 1 2 3 4 5 6 7 8 9 10 11 12 13 14 15 16 17 18 19 20 21 22 23 24 25 26 27 28 29 30 31 32 33 34 35 36 37 38 39 40 41 42 43 44 45 46 47 48 49 50

000
ASUS43 KEAX 020611
RWREAX

WEATHER ROUNDUP FOR EASTERN KANSAS AND NORTHWEST MISSOURI
NATIONAL WEATHER SERVICE KANSAS CITY/PLEASANT HILL MO
100 AM CDT TUE JUN 02 2015

KSZ040-057-103>105-MOZ028-029-037-043-020700-
...KANSAS CITY METROPOLITAN AREA...

CITY           SKY/WX    TMP DP  RH WIND       PRES   REMARKS
K.C. INTL      CLOUDY    59  54  83 SE9       30.13S
6HR MIN TEMP:  59; 6HR MAX TEMP:  64;

K.C. DOWNTOWN  CLOUDY    62  52  69 SE8       30.12F
6HR MIN TEMP:  62; 6HR MAX TEMP:  65;

LEES SUMMIT    CLOUDY    60  53  77 E5        30.13F
6HR MIN TEMP:  60; 6HR MAX TEMP:  63;

OLATHE - IXD   CLOUDY    59  54  83 SE7       30.14S
6HR MIN TEMP:  59; 6HR MAX TEMP:  62;

OLATHE - OJC   CLOUDY    59  53  80 SE6       30.12S
6HR MIN TEMP:  59; 6HR MAX TEMP:  62;

LAWRENCE       CLOUDY    60  54  80 S8        30.13S

$$

MOZ001>008-011>017-020>025-030>033-038>040-044>046-053-054-020700-
...NORTHERN AND CENTRAL MISSOURI...

CITY           SKY/WX    TMP DP  RH WIND       PRES   REMARKS
ST. JOSEPH     CLOUDY    62  54  74 S9        30.12S
6HR MIN TEMP:  62; 6HR MAX TEMP:  67;

MOSBY          CLOUDY    61  54  77 SE6       30.12F
HARRISONVILLE  CLOUDY    61  55  82 SE5       30.15F
WARRENSBURG    CLOUDY    59  54  82 SE3       30.13S
WHITEMAN AFB   CLOUDY    60  55  83 S3        30.12F
6HR MIN TEMP:  60; 6HR MAX TEMP:  62;

CLINTON        CLOUDY    61  55  82 SE7       30.14S
SEDALIA        CLOUDY    61  54  77 SE6       30.14F
6HR MIN TEMP:  61; 6HR MAX TEMP:  63;

WARSAW         FOG       59  54  82 CALM      30.14S VSB 1
CHILLICOTHE      N/A     61  54  77 SE7       30.14F
6HR MIN TEMP:  61; 6HR MAX TEMP:  65;

MOBERLY        CLEAR     55  52  88 CALM      30.15S
KIRKSVILLE     CLEAR     51  51 100 S3        30.14F FOG
6HR MIN TEMP:  50; 6HR MAX TEMP:  62;


$$

MOZ041-047>049-056>058-063>065-088>090-097-020700-
...EASTERN AND SOUTHERN MISSOURI...

CITY           SKY/WX    TMP DP  RH WIND       PRES   REMARKS
ST. LOUIS INTL PTCLDY    62  55  77 NE5       30.12F
6HR MIN TEMP:  62; 6HR MAX TEMP:  67;

SPIRIT OF STL  CLOUDY    59  58  96 W3        30.11F
COLUMBIA       CLOUDY    58  56  93 E3        30.13F
JEFFERSON CITY CLOUDY    60  56  86 CALM      30.13F
MEXICO         CLEAR    N/A N/A N/A CALM      30.14S
ROLLA          CLOUDY    57  56  96 CALM      30.12F
OSAGE BEACH    CLOUDY    59  55  88 E5        30.13F
SPRINGFIELD    CLEAR     56  53  90 E5        30.11F
BRANSON        CLOUDY    59  57  94 CALM      30.13S
NEVADA         PTCLDY    54  54 100 E3        30.14R
JOPLIN         CLEAR     57  55  93 E6        30.10F
WEST PLAINS    CLOUDY    59  55  87 NE3       30.13F
MALDEN         CLOUDY    63  59  88 N3        30.11

$$

IAZ060-094-KSZ022-034>040-054-083-096-NEZ052-066-093-020700-
...KANSAS...SOUTHEAST NEBRASKA AND IOWA...

CITY           SKY/WX    TMP DP  RH WIND       PRES   REMARKS
TOPEKA         PTCLDY    57  53  86 E5        30.12F
6HR MIN TEMP:  57; 6HR MAX TEMP:  67;

MANHATTAN      MOCLDY    60  55  83 E6        30.08F
EMPORIA        CLOUDY    58  55  90 E9        30.10F
CHANUTE        CLOUDY    58  56  93 E9        30.11R
WICHITA        PTCLDY    65  58  78 E10       30.05F
OMAHA          PTCLDY    62  54  74 S10       30.08S
LINCOLN        PTCLDY    61  55  81 S12       30.05F
FALLS CITY     CLEAR     56  52  86 SE9       30.10F
LAMONI         CLOUDY    59  54  83 SE5       30.13S
DES MOINES     PTCLDY    58  52  80 S5        30.13R

$$



USA.gov is the U.S. government's official web portal to all federal, state and local government web resources and services.